Regional Weather Roundup
Issued by NWS Goodland, KS

Home | Current Version | Previous Version | Graphics & Text | Print | Product List | Glossary On
Versions: 1 2 3 4 5 6 7 8 9 10 11 12 13 14 15 16 17 18 19 20 21 22 23 24 25 26 27 28 29 30 31 32 33 34 35 36 37 38 39 40 41 42 43 44 45 46 47 48 49 50
973
ASUS43 KGLD 221459
RWRGLD

GOODLAND FORECAST AREA HOURLY WEATHER ROUNDUP
NATIONAL WEATHER SERVICE GOODLAND KS
900 AM MDT MON MAY 22 2017

...OFFICIAL OBSERVATIONS...

CITY           SKY/WX    TMP DP  RH WIND       PRES   REMARKS
GOODLAND KS    CLOUDY    53  49  86 NW9       30.10S
HILL CITY KS   LGT RAIN  58  54  86 W7        30.07R
IMPERIAL NEB   SUNNY     60  46  59 W12       30.07F
MCCOOK NEB     CLOUDY    59  49  69 W8        30.06S
AKRON CO       SUNNY     53  45  74 W14       30.14S
BURLINGTON CO  CLOUDY    55  49  80 NW14      30.13R
LIMON CO       SUNNY     54  43  66 N9        30.18S
$$

...UNOFFICIAL OBSERVATIONS...

CITY           SKY/WX    TMP DP  RH WIND       PRES   REMARKS
LENORA KS        N/A     56  32  40 MISG        N/A
NORTON KS      SUNNY     57  48  72 W9        30.05S
TRENTON NEB      N/A     59  32  36 NW6         N/A
YUMA CO        FAIR      55  39  54 W14       30.12F
$$




USA.gov is the U.S. government's official web portal to all federal, state and local government web resources and services.